Location: ???????
(55.8719°N, 38.1523°E)
Time: 19:03:03
(UTC+00:00)

Cosmos 2221 - Pass Details

Date: 14 April 2024
Orbit: 583 x 603 km, 82.5° (Epoch: 18 May)

Event Time Altitude Azimuth Distance (km) Brightness Sun altitude
Exits shadow 00:02:39 34° 241° (WSW) 990 3.1 -17.1°
Maximum altitude 00:03:59 46° 288° (WNW) 806 2.9 -17.0°
Drops below altitude 10° 00:08:07 10° 3° (N) 1,938 5.9 -16.6°
Sets 00:10:25 0° 10° (N) 2,848 7.0 -16.4°
